TimeAKDT,TemperatureF,Dew PointF,Humidity,Sea Level PressureIn,VisibilityMPH,Wind Direction,Wind SpeedMPH,Gust SpeedMPH,PrecipitationIn,Events,Conditions,WindDirDegrees,DateUTC
12:53 AM,54.0,37.0,53,29.58,10.0,NNE,5.8,-,N/A,,Mostly Cloudy,30,2012-05-22 08:53:00
1:53 AM,53.1,35.1,50,29.59,10.0,NNE,4.6,-,N/A,,Mostly Cloudy,30,2012-05-22 09:53:00
2:53 AM,48.9,37.0,64,29.60,10.0,Calm,Calm,-,N/A,,Mostly Cloudy,0,2012-05-22 10:53:00
3:53 AM,48.0,37.9,68,29.61,10.0,Calm,Calm,-,N/A,,Mostly Cloudy,0,2012-05-22 11:53:00
4:53 AM,45.0,37.9,76,29.62,10.0,Calm,Calm,-,N/A,,Mostly Cloudy,0,2012-05-22 12:53:00
5:53 AM,48.0,39.9,74,29.62,10.0,Calm,Calm,-,N/A,,Mostly Cloudy,0,2012-05-22 13:53:00
6:53 AM,54.0,35.1,49,29.63,10.0,ENE,3.5,-,N/A,,Mostly Cloudy,70,2012-05-22 14:53:00
7:53 AM,57.9,33.1,39,29.64,10.0,Calm,Calm,-,N/A,,Mostly Cloudy,0,2012-05-22 15:53:00
8:53 AM,60.1,34.0,38,29.64,10.0,Calm,Calm,-,N/A,,Mostly Cloudy,0,2012-05-22 16:53:00
9:53 AM,63.0,33.1,33,29.65,10.0,East,4.6,-,N/A,,Mostly Cloudy,90,2012-05-22 17:53:00
10:53 AM,66.9,30.9,26,29.65,10.0,East,6.9,-,N/A,,Mostly Cloudy,80,2012-05-22 18:53:00
11:53 AM,68.0,30.9,25,29.64,10.0,East,5.8,-,N/A,,Mostly Cloudy,90,2012-05-22 19:53:00
12:53 PM,71.1,30.9,23,29.64,10.0,East,8.1,-,N/A,,Mostly Cloudy,80,2012-05-22 20:53:00
1:53 PM,70.0,30.9,24,29.65,10.0,East,12.7,-,N/A,,Mostly Cloudy,90,2012-05-22 21:53:00
2:53 PM,70.0,30.0,23,29.66,10.0,North,5.8,-,0.00,,Mostly Cloudy,360,2012-05-22 22:53:00
3:53 PM,70.0,30.9,24,29.66,10.0,East,9.2,-,N/A,,Mostly Cloudy,90,2012-05-22 23:53:00
4:53 PM,71.1,32.0,24,29.67,10.0,East,9.2,-,N/A,,Mostly Cloudy,100,2012-05-23 00:53:00
5:53 PM,70.0,33.1,26,29.68,10.0,East,8.1,-,N/A,,Overcast,100,2012-05-23 01:53:00
6:53 PM,69.1,34.0,27,29.69,10.0,ESE,9.2,-,N/A,,Overcast,120,2012-05-23 02:53:00
7:53 PM,66.9,37.0,33,29.71,10.0,Variable,4.6,-,N/A,,Overcast,0,2012-05-23 03:53:00
8:53 PM,63.0,39.9,43,29.73,10.0,SSW,5.8,-,N/A,,Mostly Cloudy,210,2012-05-23 04:53:00
9:53 PM,61.0,44.1,54,29.74,10.0,WSW,3.5,-,N/A,,Mostly Cloudy,240,2012-05-23 05:53:00
10:53 PM,60.1,44.1,55,29.75,10.0,Calm,Calm,-,N/A,,Mostly Cloudy,0,2012-05-23 06:53:00
11:53 PM,59.0,44.1,58,29.77,10.0,SSW,4.6,-,N/A,,Mostly Cloudy,210,2012-05-23 07:53:00